Flag for U.S.A. Weather past 2 weeks in Livonia, Michigan, U.S.A.

51 °F


Feels Like: 48 °F
Forecast: 49 / 64 °F
Wind: 8 mph from North

Location: Detroit Metropolitan Wayne County Airport

Current Time: Oct 4, 2015 at 9:30:13 AM

Latest Report: Oct 4, 2015 at 8:53 AM

Visibility: 3 mi

Pressure: 30.24 "Hg

Humidity: 96%

Dew point: 50 °F

Location of LivoniaLocation

Historic Weather in Livonia — Graph


Livonia temperature yesterday

Maximum temperature yesterday: 52 °F (at 1:53 PM)
Minimum temperature yesterday: 47 °F (at 5:53 PM)
Average temperature yesterday: 48 °F

Past Weeks' High & Low Weather Summary

High80 °F (Sep 25, 2:53 PM)97% (Oct 4, 2:53 AM)30.37 "Hg (Oct 4, 2:53 AM)
Low46 °F (Oct 1, 7:53 AM)33% (Sep 21, 4:53 PM)29.71 "Hg (Sep 19, 7:53 AM)
Average62 °F69%30.18 "Hg
* Reported Sep 19 7:53 AM — Oct 4 7:58 AM, Livonia, Weather by CustomWeather, © 2015

Note: Actual official high and low records may vary slightly from our data, if they occured in-between our weather recording intervals... More about our weather records


Livonia weather history for previous 24 hours

Time TempWeatherWind HumidityBarometerVisibility
7:58 AM
Sun, Oct 4
52 °FFog.7 mph88%30.22 "Hg3 mi
6:53 AM50 °FFog.7 mph96%30.21 "Hg6 mi
5:53 AM50 °FFog.7 mph96%30.20 "Hg1 mi
4:53 AM50 °FFog.6 mph96%30.20 "Hg3 mi
3:53 AM50 °FFog.9 mph96%30.19 "Hg3 mi
2:53 AM49 °FLow clouds.7 mph97%30.20 "Hg3 mi
1:53 AM49 °FLow clouds.9 mph93%30.20 "Hg3 mi
1:02 AM48 °FLight rain. Fog.9 mph94%30.20 "Hg3 mi
11:53 PM
Sat, Oct 3
48 °FLight rain. Fog.12 mph93%30.21 "Hg3 mi
10:53 PM48 °FLight rain. Fog.12 mph93%30.22 "Hg3 mi
9:53 PM47 °FLight rain. Fog.15 mph93%30.22 "Hg3 mi
8:53 PM47 °FRain. Fog.14 mph93%30.22 "Hg4 mi
7:53 PM47 °FRain. Fog.13 mph93%30.22 "Hg6 mi
6:53 PM47 °FRain. Fog.15 mph90%30.23 "Hg6 mi
5:53 PM47 °FLight rain. Mostly cloudy.17 mph90%30.22 "Hg9 mi
4:53 PM48 °FLight rain. Mostly cloudy.17 mph83%30.21 "Hg9 mi
3:53 PM48 °FLight rain. Cloudy.16 mph83%30.21 "Hg7 mi
2:53 PM51 °FLight rain. Overcast.14 mph69%30.22 "Hg9 mi
1:53 PM52 °FOvercast.21 mph59%30.23 "Hg10 mi
12:53 PM50 °FOvercast.17 mph63%30.23 "Hg10 mi
11:53 AM49 °FMostly cloudy.17 mph61%30.25 "Hg10 mi
10:53 AM48 °FMostly cloudy.15 mph61%30.26 "Hg10 mi
9:53 AM48 °FMostly cloudy.14 mph61%30.27 "Hg10 mi
Weather by CustomWeather, © 2015

See weather overviewHow to use our weather pages